Starlink 5620

operational
NORAD ID: 55414 Int'l Des: 2023-014 Owner: SPXS Country: US Constellation: starlink
LEOCIRCULAR

Über Starlink 5620

Beschreibung wird geladen...

Live-Position

3D-Globus wird geladen...

Nächste Überflüge

Höhenverlauf

Altitude vs Time

uPlot chart will show altitude changes over time

Zweizeiliger Elementsatz

1 55414U 23014Z 25290.88482096 .00000601 00000-0 58114-4 0 9992
2 55414 69.9986 84.4290 0002787 270.8277 89.2563 14.98332051150175
Epoch: 17. Okt. 2025 • Age: 9 hours

Aktueller Status

Höhe 581.9 km
Geschwindigkeit 7.57 km/s
Subsatellitenpunkt -30.66°S, 156°E
Startdatum 31. Jan. 2023
Alter 2.7 years
Typ internet

Technische Details

Klassifizierung Payload
Masse 305.00 kg
Trockenmasse 290.00 kg
Gesamtmasse 305.00 kg
Länge 0.20 m
Durchmesser 2.80 m
Spannweite 9.00 m
Form Box + pan
Hersteller SPXS
Bus-Typ Starlink
Phasenstatus In Orbit
Besitzer/Staat SPXS/US

Große Konstellationen

Loading constellations...